Location: *
(41.0833°N, 73.4167°W)
Time: 20:53:59
(UTC+00:00)

Cosmos 2366 rocket - Pass Details

Date: 22 October 2019
Orbit: 955 x 998 km, 82.9° (Epoch: 11 November)

Event Time Altitude Azimuth Distance (km) Brightness Sun altitude
Rises 10:02:43 0° 180° (S) 3,698 7.1 -13.9°
Reaches altitude 10° 10:05:14 10° 179° (S) 2,755 6.4 -13.4°
Maximum altitude 10:11:33 76° 95° (E) 1,029 4.3 -12.2°
Drops below altitude 10° 10:17:54 10° 11° (N) 2,770 6.5 -11.0°
Sets 10:20:26 0° 10° (N) 3,719 7.1 -10.5°
